Flag for U.S.A. Weather past 2 weeks in Palestine, Texas, U.S.A.

Now
85 °F

Scattered clouds.


Feels Like: 86 °F
Forecast: 62 / 84 °F
Wind: No wind

Location: Palestine Municipal Airport

Current Time: Jun 2, 2015 at 3:02:41 PM

Latest Report: Jun 2, 2015 at 2:15 PM


Visibility: 10 mi

Pressure: 30.02 "Hg

Humidity: 48%

Dew point: 64 °F

Location of PalestineLocation

Historic Weather in Palestine — Graph

°F

Palestine temperature yesterday

Maximum temperature yesterday: 83 °F (at 3:55 PM)
Minimum temperature yesterday: 59 °F (at 6:15 AM)
Average temperature yesterday: 72 °F

Past Weeks' High & Low Weather Summary

 TemperatureHumidityPressure
High88 °F (May 28, 3:35 PM)100% (May 19, 6:35 AM)30.21 "Hg (May 19, 6:35 AM)
Low59 °F (Jun 1, 6:15 AM)46% (Jun 1, 5:15 PM)29.83 "Hg (May 25, 5:15 PM)
Average73 °F85%30.04 "Hg
* Reported May 18 1:15 PM — Jun 2 1:55 PM, Palestine, Weather by CustomWeather, © 2015

Note: Actual official high and low records may vary slightly from our data, if they occured in-between our weather recording intervals... More about our weather records

Advertising

Palestine weather history for previous 24 hours

 ConditionsComfort  
Time TempWeatherWind HumidityBarometerVisibility
1:55 PM
Tue, Jun 2
83 °FScattered clouds.3 mph52%30.03 "Hg10 mi
1:15 PM84 °FSunny.No wind50%30.04 "Hg10 mi
12:55 PM84 °FSunny.3 mph52%30.05 "Hg10 mi
12:15 PM82 °FSunny.5 mph56%30.05 "Hg10 mi
11:55 AM82 °FScattered clouds.No wind56%30.05 "Hg10 mi
11:35 AM82 °FScattered clouds.6 mph58%30.06 "Hg10 mi
11:15 AM81 °FScattered clouds.6 mph61%30.06 "Hg10 mi
10:15 AM79 °FSunny.5 mph65%30.07 "Hg10 mi
9:55 AM78 °FSunny.5 mph69%30.08 "Hg10 mi
9:35 AM77 °FSunny.6 mph73%30.08 "Hg10 mi
9:15 AM75 °FSunny.5 mph74%30.08 "Hg10 mi
8:55 AM74 °FSunny.6 mph78%30.08 "Hg10 mi
8:35 AM72 °FSunny.5 mph81%30.08 "Hg10 mi
8:15 AM71 °FSunny.5 mph85%30.08 "Hg10 mi
7:55 AM70 °FSunny.6 mph87%30.07 "Hg7 mi
7:35 AM67 °FSunny.No wind95%30.06 "Hg10 mi
7:15 AM64 °FClear.No wind96%30.05 "Hg10 mi
6:55 AM62 °FClear.No wind98%30.05 "Hg7 mi
6:15 AM62 °FClear.No wind98%30.04 "Hg7 mi
5:55 AM62 °FClear.No wind99%30.04 "Hg7 mi
5:35 AM62 °FClear.No wind100%30.04 "Hg7 mi
5:15 AM62 °FClear.No wind99%30.04 "Hg7 mi
4:55 AM62 °FClear.No wind99%30.04 "Hg7 mi
4:35 AM62 °FClear.No wind98%30.04 "Hg7 mi
4:15 AM63 °FClear.No wind98%30.05 "Hg7 mi
3:55 AM63 °FClear.No wind96%30.04 "Hg10 mi
3:15 AM64 °FClear.6 mph93%30.05 "Hg10 mi
2:55 AM64 °FClear.No wind96%30.04 "Hg10 mi
2:35 AM64 °FClear.No wind95%30.04 "Hg10 mi
2:15 AM64 °FClear.No wind96%30.04 "Hg10 mi
1:55 AM64 °FClear.No wind95%30.04 "Hg10 mi
1:35 AM65 °FClear.No wind96%30.04 "Hg10 mi
1:15 AM65 °FClear.No wind96%30.05 "Hg10 mi
12:55 AM65 °FClear.No wind94%30.05 "Hg10 mi
12:15 AM67 °FClear.No wind89%30.06 "Hg10 mi
11:55 PM
Mon, Jun 1
65 °FClear.No wind96%30.06 "Hg10 mi
11:15 PM67 °FClear.No wind95%30.06 "Hg10 mi
10:15 PM68 °FClear.No wind93%30.05 "Hg10 mi
9:55 PM68 °FClear.No wind93%30.04 "Hg10 mi
9:15 PM71 °FSunny.No wind89%30.03 "Hg10 mi
8:55 PM71 °FSunny.No wind87%30.03 "Hg10 mi
8:15 PM78 °FSunny.No wind55%30.03 "Hg10 mi
7:55 PM78 °FSunny.No wind59%30.03 "Hg10 mi
7:35 PM79 °FSunny.No wind56%30.03 "Hg10 mi
7:15 PM80 °FSunny.No wind50%30.03 "Hg10 mi
6:55 PM81 °FSunny.No wind49%30.03 "Hg10 mi
6:35 PM82 °FSunny.No wind48%30.03 "Hg10 mi
6:15 PM81 °FSunny.No wind46%30.04 "Hg10 mi
5:55 PM82 °FSunny.5 mph47%30.04 "Hg10 mi
5:15 PM83 °FSunny.7 mph46%30.05 "Hg10 mi
4:55 PM82 °FSunny.No wind48%30.05 "Hg10 mi
4:15 PM82 °FSunny.6 mph50%30.05 "Hg10 mi
3:55 PM83 °FSunny.6 mph49%30.06 "Hg10 mi
3:35 PM82 °FSunny.3 mph50%30.06 "Hg10 mi
3:15 PM82 °FSunny.5 mph49%30.07 "Hg10 mi
Weather by CustomWeather, © 2015

See weather overviewHow to use our weather pages